FW4559 Weather Reports


Display with metric or nautical units.
time (UTC)temp
F
wind
direction
speed
MPH
gust
MPH
rain 1hr
in
rain 24hr
in
rain mn
in
humidity
%
barometer
mb
20260509032029 52 152 1.0 5.0 0.00 0.00 0.00 77 1014.1
20260509031529 52 138 1.0 7.0 0.00 0.00 0.00 77 1014.1
20260509031028 52 211 2.0 8.0 0.00 0.00 0.00 76 1014.2
20260509030528 52 145 2.0 9.0 0.00 0.00 0.00 76 1014.2
20260509030028 52 106 4.0 9.0 0.00 0.00 0.00 77 1014.2
20260509025527 52 229 2.0 5.0 0.00 0.00 0.00 76 1014.4
20260509025027 52 180 2.0 6.0 0.00 0.00 0.00 76 1014.4
20260509024526 52 140 1.0 6.0 0.00 0.00 0.00 76 1014.5
20260509024029 52 157 0.0 3.0 0.00 0.00 0.00 76 1014.5
20260509023527 53 152 0.0 6.0 0.00 0.00 0.00 75 1014.4
20260509023026 53 178 2.0 6.0 0.00 0.00 0.00 75 1014.5
20260509022530 53 157 2.0 6.0 0.00 0.00 0.00 75 1014.4
20260509022026 53 148 2.0 8.0 0.00 0.00 0.00 74 1014.4
20260509021526 53 129 3.0 8.0 0.00 0.00 0.00 74 1014.4
20260509021027 53 186 1.0 7.0 0.00 0.00 0.00 74 1014.3
20260509020526 53 173 2.0 7.0 0.00 0.00 0.00 74 1014.2
20260509020025 53 150 2.0 8.0 0.00 0.00 0.00 74 1014.2
20260509015525 53 149 1.0 8.0 0.00 0.00 0.00 73 1014.3
20260509015024 53 193 3.0 8.0 0.00 0.00 0.00 73 1014.3
20260509014535 53 122 3.0 5.0 0.00 0.00 0.00 73 1014.3
20260509014024 53 158 1.0 9.0 0.00 0.00 0.00 72 1014.4
20260509013524 53 193 2.0 9.0 0.00 0.00 0.00 72 1014.3
20260509013024 53 141 2.0 6.0 0.00 0.00 0.00 72 1014.3
20260509012523 53 172 2.0 6.0 0.00 0.00 0.00 72 1014.2
20260509012023 53 209 0.0 7.0 0.00 0.00 0.00 71 1014.3
20260509011525 54 181 1.0 9.0 0.00 0.00 0.00 71 1014.4
20260509011023 54 139 3.0 9.0 0.00 0.00 0.00 71 1014.3
20260509010522 54 127 1.0 4.0 0.00 0.00 0.00 70 1014.3
20260509010022 54 153 1.0 7.0 0.00 0.00 0.00 69 1014.2
20260509005522 54 141 3.0 7.0 0.00 0.00 0.00 69 1014.4
20260509005021 54 155 1.0 6.0 0.00 0.00 0.00 68 1014.2
20260509004520 54 174 2.0 7.0 0.00 0.00 0.00 67 1014.3
20260509004020 55 134 3.0 8.0 0.00 0.00 0.00 67 1014.0
20260509003520 55 162 4.0 8.0 0.00 0.00 0.00 66 1014.1
20260509003020 55 136 2.0 5.0 0.00 0.00 0.00 65 1014.2
20260509002519 55 236 2.0 5.0 0.00 0.00 0.00 64 1014.1
20260509002020 56 146 0.0 6.0 0.00 0.00 0.00 63 1014.0
20260509001525 56 169 3.0 6.0 0.00 0.00 0.00 62 1014.0
20260509001020 56 207 1.0 5.0 0.00 0.00 0.00 62 1014.0
20260509000520 57 177 1.0 9.0 0.00 0.00 0.00 61 1013.9
20260509000019 57 177 4.0 9.0 0.00 0.00 0.00 60 1013.9
20260508235519 57 172 2.0 9.0 0.00 0.00 0.00 59 1013.9
20260508235019 57 149 2.0 8.0 0.00 0.00 0.00 59 1013.7
20260508234518 57 146 2.0 9.0 0.00 0.00 0.00 58 1013.7
20260508234018 58 120 3.0 11.0 0.00 0.00 0.00 58 1013.9
20260508233519 58 193 4.0 11.0 0.00 0.00 0.00 57 1013.8
20260508233018 58 203 4.0 8.0 0.00 0.00 0.00 57 1013.8
20260508232517 58 173 1.0 12.0 0.00 0.00 0.00 57 1013.8
20260508232017 58 189 4.0 12.0 0.00 0.00 0.00 56 1013.8
20260508231517 58 115 4.0 8.0 0.00 0.00 0.00 55 1013.6
20260508231017 58 164 2.0 7.0 0.00 0.00 0.00 55 1013.9
20260508230517 59 189 3.0 11.0 0.00 0.00 0.00 54 1014.0
20260508230017 59 204 3.0 11.0 0.00 0.00 0.00 54 1014.0
20260508225516 59 136 3.0 11.0 0.00 0.00 0.00 53 1014.0
20260508225019 60 200 4.0 11.0 0.00 0.00 0.00 52 1014.0
20260508224515 60 159 2.0 9.0 0.00 0.00 0.00 53 1013.9
20260508224015 60 155 5.0 9.0 0.00 0.00 0.00 51 1014.0
20260508223514 60 119 2.0 8.0 0.00 0.00 0.00 52 1013.9
20260508223015 60 146 3.0 9.0 0.00 0.00 0.00 50 1013.8
20260508222514 60 155 4.0 8.0 0.00 0.00 0.00 50 1014.0
20260508222017 60 201 2.0 12.0 0.00 0.00 0.00 49 1013.9
20260508221515 61 141 2.0 7.0 0.00 0.00 0.00 48 1013.7
20260508221014 61 183 2.0 9.0 0.00 0.00 0.00 47 1013.8
20260508220514 60 158 4.0 9.0 0.00 0.00 0.00 46 1013.6
20260508220045 61 205 5.0 10.0 0.00 0.00 0.00 45 1013.5
20260508215513 61 148 4.0 10.0 0.00 0.00 0.00 43 1013.4
20260508215013 61 189 2.0 12.0 0.00 0.00 0.00 45 1013.5
20260508214514 61 207 4.0 12.0 0.00 0.00 0.00 43 1013.5
20260508214012 61 145 5.0 14.0 0.00 0.00 0.00 42 1013.5
20260508213512 61 84 3.0 14.0 0.00 0.00 0.00 42 1013.5
20260508213012 61 6 4.0 9.0 0.00 0.00 0.00 40 1013.5
20260508212512 61 206 3.0 10.0 0.00 0.00 0.00 40 1013.6
20260508212011 61 146 5.0 11.0 0.00 0.00 0.00 38 1013.7
20260508211511 61 151 4.0 8.0 0.00 0.00 0.00 37 1013.5
20260508211011 62 151 3.0 7.0 0.00 0.00 0.00 37 1013.4
20260508210511 61 146 2.0 10.0 0.00 0.00 0.00 38 1013.5
20260508210011 61 110 2.0 9.0 0.00 0.00 0.00 37 1013.5
20260508205512 61 181 4.0 12.0 0.00 0.00 0.00 36 1013.8
20260508205011 61 131 5.0 12.0 0.00 0.00 0.00 36 1013.9
20260508204510 62 167 2.0 10.0 0.00 0.00 0.00 37 1013.9
20260508204014 62 160 4.0 10.0 0.00 0.00 0.00 35 1013.9
20260508203508 62 156 3.0 11.0 0.00 0.00 0.00 35 1014.0
20260508203008 62 154 1.0 12.0 0.00 0.00 0.00 36 1014.3
20260508202508 62 149 2.0 9.0 0.00 0.00 0.00 36 1014.5
20260508202008 61 143 2.0 9.0 0.00 0.00 0.00 35 1014.5
20260508201507 62 153 4.0 14.0 0.00 0.00 0.00 34 1014.7
20260508201007 63 206 7.0 14.0 0.00 0.00 0.00 32 1014.7
20260508200507 63 186 6.0 11.0 0.00 0.00 0.00 33 1014.7
20260508200006 62 206 5.0 9.0 0.00 0.00 0.00 32 1014.7
20260508195506 62 184 3.0 10.0 0.00 0.00 0.00 33 1014.7
20260508195006 61 79 3.0 17.0 0.00 0.00 0.00 33 1014.8
20260508194506 62 129 7.0 17.0 0.00 0.00 0.00 33 1014.7
20260508194006 62 79 5.0 14.0 0.00 0.00 0.00 33 1014.7
20260508193505 62 131 5.0 8.0 0.00 0.00 0.00 34 1014.8
20260508193005 62 158 2.0 6.0 0.00 0.00 0.00 34 1014.8
20260508192505 63 127 4.0 7.0 0.00 0.00 0.00 32 1014.9
20260508192004 62 99 2.0 8.0 0.00 0.00 0.00 35 1014.9
20260508191506 62 137 3.0 11.0 0.00 0.00 0.00 33 1015.0
20260508191004 62 145 4.0 11.0 0.00 0.00 0.00 31 1015.2
20260508190504 62 143 4.0 9.0 0.00 0.00 0.00 31 1015.3
20260508190003 62 210 5.0 9.0 0.00 0.00 0.00 29 1015.4
20260508185501 61 207 5.0 15.0 0.00 0.00 0.00 28 1015.5
20260508185002 61 150 6.0 15.0 0.00 0.00 0.00 28 1015.5
20260508184600 61 271 4.0 11.0 0.00 0.00 0.00 31 1015.4
20260508184059 61 156 4.0 10.0 0.00 0.00 0.00 30 1015.5
20260508183559 61 70 3.0 12.0 0.00 0.00 0.00 32 1015.5
20260508183059 61 164 5.0 12.0 0.00 0.00 0.00 33 1015.5
20260508182558 61 172 3.0 7.0 0.00 0.00 0.00 33 1015.5
20260508182058 61 131 4.0 11.0 0.00 0.00 0.00 31 1015.6
20260508181609 61 197 5.0 11.0 0.00 0.00 0.00 32 1015.5
20260508181058 61 203 4.0 12.0 0.00 0.00 0.00 33 1015.6
20260508180558 61 190 5.0 12.0 0.00 0.00 0.00 32 1015.6
20260508180107 61 163 3.0 11.0 0.00 0.00 0.00 31 1015.7
20260508175558 61 174 4.0 11.0 0.00 0.00 0.00 32 1015.9
20260508175057 61 165 4.0 12.0 0.00 0.00 0.00 33 1015.9
20260508174614 60 163 2.0 8.0 0.00 0.00 0.00 33 1016.1
20260508174058 60 149 4.0 11.0 0.00 0.00 0.00 32 1016.3
20260508173557 61 155 2.0 9.0 0.00 0.00 0.00 33 1016.3
20260508173100 61 161 3.0 9.0 0.00 0.00 0.00 34 1016.3
20260508172555 60 204 4.0 9.0 0.00 0.00 0.00 33 1016.4
20260508172055 60 153 5.0 9.0 0.00 0.00 0.00 34 1016.3
20260508171555 60 148 2.0 9.0 0.00 0.00 0.00 33 1016.4
20260508171059 61 144 4.0 9.0 0.00 0.00 0.00 32 1016.5
20260508170555 61 178 2.0 7.0 0.00 0.00 0.00 32 1016.6
20260508170058 60 231 0.0 7.0 0.00 0.00 0.00 34 1016.7
20260508165553 61 134 3.0 10.0 0.00 0.00 0.00 33 1016.7
20260508165053 60 154 1.0 10.0 0.00 0.00 0.00 35 1016.7
20260508164554 60 209 4.0 10.0 0.00 0.00 0.00 33 1016.7
20260508164055 60 161 1.0 7.0 0.00 0.00 0.00 36 1016.7
20260508163553 60 180 5.0 10.0 0.00 0.00 0.00 34 1016.7
20260508163051 60 181 5.0 10.0 0.00 0.00 0.00 35 1016.8
20260508162551 59 217 1.0 8.0 0.00 0.00 0.00 36 1016.9
20260508162051 60 140 3.0 9.0 0.00 0.00 0.00 35 1017.1
20260508161550 60 117 4.0 10.0 0.00 0.00 0.00 34 1017.0
20260508161050 59 103 4.0 10.0 0.00 0.00 0.00 36 1017.1
20260508160553 59 131 1.0 8.0 0.00 0.00 0.00 39 1017.1
20260508160049 59 141 2.0 8.0 0.00 0.00 0.00 39 1017.2
20260508155549 59 134 3.0 9.0 0.00 0.00 0.00 39 1017.3
20260508155049 60 156 2.0 9.0 0.00 0.00 0.00 39 1017.3
20260508154549 60 176 1.0 8.0 0.00 0.00 0.00 38 1017.4
20260508154047 60 188 3.0 8.0 0.00 0.00 0.00 39 1017.4
20260508153546 59 200 1.0 6.0 0.00 0.00 0.00 40 1017.4
20260508153046 59 136 1.0 6.0 0.00 0.00 0.00 42 1017.4
20260508152549 59 218 2.0 6.0 0.00 0.00 0.00 39 1017.4
20260508152044 58 177 2.0 6.0 0.00 0.00 0.00 43 1017.5
20260508151545 58 162 2.0 5.0 0.00 0.00 0.00 40 1017.6
20260508151045 58 167 3.0 5.0 0.00 0.00 0.00 39 1017.6
20260508150543 58 155 1.0 4.0 0.00 0.00 0.00 41 1017.6
20260508150042 58 142 1.0 4.0 0.00 0.00 0.00 41 1017.5
20260508145541 57 118 1.0 4.0 0.00 0.00 0.00 41 1017.5
20260508145040 56 240 0.0 6.0 0.00 0.00 0.00 46 1017.5
20260508144539 57 131 2.0 6.0 0.00 0.00 0.00 43 1017.5
20260508144040 55 223 0.0 6.0 0.00 0.00 0.00 45 1017.6
20260508143539 56 228 0.0 5.0 0.00 0.00 0.00 43 1017.6
20260508143040 56 245 1.0 3.0 0.00 0.00 0.00 45 1017.6
20260508142538 55 153 1.0 5.0 0.00 0.00 0.00 45 1017.6
20260508142038 56 76 1.0 6.0 0.00 0.00 0.00 44 1017.5
20260508141546 56 151 0.0 6.0 0.00 0.00 0.00 45 1017.5
20260508141038 57 142 2.0 5.0 0.00 0.00 0.00 42 1017.6
20260508140538 56 11 0.0 5.0 0.00 0.00 0.00 42 1017.5
20260508140039 57 264 0.0 5.0 0.00 0.00 0.00 43 1017.5
20260508135536 56 162 0.0 3.0 0.00 0.00 0.00 44 1017.5
20260508135035 56 139 1.0 3.0 0.00 0.00 0.00 43 1017.5
20260508134539 56 144 0.0 3.0 0.00 0.00 0.00 43 1017.4
20260508134033 56 179 1.0 3.0 0.00 0.00 0.00 43 1017.4
20260508133536 56 153 0.0 4.0 0.00 0.00 0.00 46 1017.2
20260508133032 56 205 0.0 4.0 0.00 0.00 0.00 45 1017.2
20260508132537 55 141 0.0 4.0 0.00 0.00 0.00 45 1017.2
20260508132033 55 124 1.0 4.0 0.00 0.00 0.00 45 1017.2
20260508131530 55 165 0.0 2.0 0.00 0.00 0.00 46 1017.0
20260508131030 55 141 1.0 2.0 0.00 0.00 0.00 43 1017.1
20260508130528 55 133 0.0 2.0 0.00 0.00 0.00 42 1017.0
20260508130029 55 176 0.0 2.0 0.00 0.00 0.00 44 1017.0
20260508125529 54 127 0.0 2.0 0.00 0.00 0.00 43 1016.9
20260508125027 55 149 0.0 1.0 0.00 0.00 0.00 45 1017.1
20260508124525 55 149 0.0 0.0 0.00 0.00 0.00 48 1016.8
20260508124024 54 149 0.0 0.0 0.00 0.00 0.00 51 1016.8
20260508123524 52 149 0.0 0.0 0.00 0.00 0.00 56 1016.8
20260508123022 51 149 0.0 0.0 0.00 0.00 0.00 58 1016.8
20260508122520 50 149 0.0 1.0 0.00 0.00 0.00 61 1016.8
20260508122018 48 149 0.0 1.0 0.00 0.00 0.00 63 1016.8
20260508121526 47 149 0.0 1.0 0.00 0.00 0.00 65 1016.7
20260508121018 45 161 0.0 1.0 0.00 0.00 0.00 68 1016.6
20260508120517 44 243 0.0 1.0 0.00 0.00 0.00 69 1016.5
20260508120017 43 144 0.0 1.0 0.00 0.00 0.00 73 1016.5
20260508115518 43 144 0.0 1.0 0.00 0.00 0.00 71 1016.4
20260508115015 41 124 0.0 1.0 0.00 0.00 0.00 75 1016.2
20260508114515 40 124 0.0 1.0 0.00 0.00 0.00 77 1016.1
20260508114018 39 110 0.0 1.0 0.00 0.00 0.00 79 1016.0
20260508113514 39 129 0.0 1.0 0.00 0.00 0.00 79 1016.0
20260508113016 39 131 0.0 2.0 0.00 0.00 0.00 79 1016.0
20260508112515 38 133 0.0 2.0 0.00 0.00 0.00 80 1015.8
20260508112011 38 113 0.0 1.0 0.00 0.00 0.00 81 1015.7
20260508111510 38 113 0.0 1.0 0.00 0.00 0.00 80 1015.7
20260508111009 38 142 0.0 1.0 0.00 0.00 0.00 78 1015.6
20260508110508 39 142 0.0 1.0 0.00 0.00 0.00 77 1015.5
20260508110014 39 142 0.0 2.0 0.00 0.00 0.00 77 1015.6
20260508105506 40 141 0.0 2.0 0.00 0.03 0.00 75 1015.5
20260508105005 42 126 0.0 1.0 0.00 0.03 0.00 70 1015.3
20260508104504 43 360 0.0 4.0 0.00 0.03 0.00 66 1015.1
20260508104003 43 360 2.0 5.0 0.00 0.03 0.00 64 1014.9
20260508103502 43 330 2.0 4.0 0.00 0.03 0.00 64 1014.7
20260508103001 43 344 1.0 4.0 0.00 0.03 0.00 65 1014.6
20260508102502 43 2 1.0 3.0 0.00 0.03 0.00 67 1014.6
20260508102001 42 96 0.0 1.0 0.00 0.03 0.00 68 1014.6
20260508101601 42 96 0.0 2.0 0.00 0.03 0.00 70 1014.5
20260508101100 42 96 1.0 3.0 0.00 0.03 0.00 70 1014.4
20260508100603 42 101 1.0 3.0 0.00 0.03 0.00 70 1014.4
20260508100059 42 120 1.0 2.0 0.00 0.03 0.00 69 1014.2
20260508095556 43 140 0.0 4.0 0.00 0.03 0.00 67 1014.2
20260508095055 44 26 0.0 6.0 0.00 0.03 0.00 66 1014.1
20260508094611 44 14 1.0 8.0 0.00 0.03 0.00 66 1014.0
20260508094053 44 321 4.0 8.0 0.00 0.03 0.00 66 1014.0
20260508093552 44 312 2.0 8.0 0.00 0.03 0.00 66 1014.0
20260508093052 44 346 4.0 13.0 0.00 0.03 0.00 65 1013.9
20260508092552 44 23 4.0 13.0 0.00 0.03 0.00 65 1013.8
20260508092052 44 334 5.0 11.0 0.00 0.03 0.00 65 1013.8
20260508091550 44 15 5.0 11.0 0.00 0.03 0.00 66 1013.8
20260508091051 44 8 5.0 11.0 0.00 0.03 0.00 66 1013.8
20260508090549 44 340 6.0 11.0 0.00 0.03 0.00 65 1013.7
20260508090052 44 335 5.0 11.0 0.00 0.03 0.00 66 1013.7
20260508085548 44 8 5.0 9.0 0.00 0.03 0.00 66 1013.9
20260508085047 44 330 4.0 9.0 0.00 0.03 0.00 66 1013.9
20260508084649 44 24 3.0 7.0 0.00 0.03 0.00 67 1013.8
20260508084047 44 323 2.0 6.0 0.00 0.03 0.00 67 1013.9
20260508083547 43 13 2.0 4.0 0.00 0.03 0.00 68 1013.8
20260508083044 44 345 1.0 2.0 0.00 0.03 0.00 68 1013.8
20260508082544 44 335 0.0 5.0 0.00 0.03 0.00 68 1013.8
20260508082045 44 352 0.0 5.0 0.00 0.03 0.00 68 1013.7
20260508081600 44 335 0.0 5.0 0.00 0.03 0.00 68 1013.7
20260508081043 44 348 1.0 6.0 0.00 0.03 0.00 68 1013.6
20260508080542 44 4 2.0 6.0 0.00 0.03 0.00 68 1013.6
20260508080042 44 30 1.0 5.0 0.00 0.03 0.00 70 1013.5
20260508075545 44 14 1.0 6.0 0.00 0.05 0.00 70 1013.5
20260508075046 44 37 1.0 4.0 0.00 0.05 0.00 70 1013.6
20260508074540 44 321 0.0 7.0 0.00 0.05 0.00 71 1013.5
20260508074039 44 101 1.0 7.0 0.00 0.05 0.00 70 1013.4
20260508073540 45 325 1.0 9.0 0.00 0.05 0.00 71 1013.5
20260508073041 45 343 2.0 10.0 0.00 0.05 0.00 71 1013.4
20260508072537 45 332 3.0 11.0 0.00 0.05 0.00 71 1013.3
20260508072037 45 283 4.0 13.0 0.00 0.05 0.00 71 1013.2
20260508071544 45 338 2.0 13.0 0.00 0.05 0.00 71 1013.3
20260508071035 45 52 3.0 14.0 0.00 0.05 0.00 71 1013.3
20260508070535 45 15 7.0 15.0 0.00 0.05 0.00 71 1013.2
20260508070035 45 19 7.0 15.0 0.00 0.05 0.00 71 1013.2
20260508065534 45 340 3.0 11.0 0.00 0.05 0.00 72 1013.3
20260508065133 45 278 5.0 11.0 0.00 0.05 0.00 73 1013.1
20260508064532 45 323 2.0 7.0 0.00 0.05 0.00 73 1013.1
20260508064031 45 349 1.0 9.0 0.00 0.05 0.00 73 1013.1
20260508063530 46 347 4.0 15.0 0.00 0.05 0.00 73 1013.0
20260508063044 46 33 2.0 15.0 0.00 0.05 0.00 73 1012.9
20260508062530 46 322 3.0 12.0 0.00 0.05 0.00 74 1012.8
20260508062029 46 315 4.0 15.0 0.00 0.05 0.00 75 1012.9
20260508061529 46 324 4.0 16.0 0.00 0.05 0.00 75 1012.8
20260508061028 46 296 4.0 13.0 0.00 0.05 0.00 76 1012.9
20260508060527 46 352 7.0 15.0 0.00 0.05 0.00 76 1012.9
20260508060034 46 348 7.0 15.0 0.00 0.05 0.00 77 1012.9
20260508055529 46 290 7.0 16.0 0.00 0.05 0.00 77 1012.9
20260508055026 46 338 8.0 17.0 0.00 0.05 0.00 78 1012.9
20260508054525 46 357 9.0 17.0 0.00 0.05 0.00 78 1012.9
20260508054023 46 339 7.0 18.0 0.00 0.05 0.00 78 1012.8
20260508053523 46 318 8.0 18.0 0.00 0.05 0.00 78 1012.7
20260508053024 46 319 8.0 16.0 0.00 0.05 0.00 78 1012.8
20260508052524 46 13 6.0 14.0 0.00 0.05 0.00 78 1012.7
20260508052021 47 326 5.0 15.0 0.00 0.05 0.00 78 1012.6
20260508051522 47 89 4.0 12.0 0.00 0.05 0.00 78 1012.5
20260508051020 47 77 4.0 12.0 0.00 0.05 0.00 78 1012.5
20260508050518 47 298 2.0 8.0 0.00 0.05 0.00 78 1012.4
20260508050019 47 58 2.0 11.0 0.00 0.05 0.00 78 1012.4
20260508045520 47 18 3.0 14.0 0.00 0.05 0.00 78 1012.2
20260508045018 47 12 5.0 16.0 0.00 0.05 0.00 79 1012.1
20260508044521 47 1 5.0 16.0 0.00 0.05 0.00 78 1012.2
20260508044016 48 335 7.0 16.0 0.00 0.05 0.00 77 1012.3
20260508043516 48 11 9.0 17.0 0.00 0.05 0.00 77 1012.4
20260508043019 48 329 8.0 17.0 0.00 0.05 0.00 77 1012.4
20260508042518 48 336 8.0 19.0 0.00 0.05 0.00 77 1012.4
20260508042013 48 335 12.0 19.0 0.00 0.05 0.00 76 1012.4
20260508041512 48 348 9.0 19.0 0.00 0.05 0.00 78 1012.4
20260508041012 48 292 7.0 20.0 0.00 0.05 0.00 78 1012.3
20260508040513 48 342 9.0 20.0 0.00 0.05 0.00 78 1012.2
20260508040009 47 16 8.0 15.0 0.00 0.05 0.00 79 1012.2
20260508035510 47 347 6.0 16.0 0.00 0.05 0.05 80 1012.4
20260508035009 47 341 7.0 14.0 0.00 0.05 0.05 79 1012.5
20260508034509 48 304 5.0 15.0 0.00 0.05 0.05 79 1012.6
20260508034008 48 322 7.0 15.0 0.00 0.05 0.05 79 1012.5
20260508033507 48 335 9.0 15.0 0.00 0.05 0.05 79 1012.5
20260508033007 48 5 4.0 15.0 0.00 0.05 0.05 79 1012.6
20260508032510 48 349 6.0 15.0 0.00 0.05 0.05 80 1012.6